Weather History for Cecil Field, FL

Change the Weather History Date:

Sunday, June 30, 2013

  Actual Average (KJAX) Record (KJAX)
Temperature  
Mean Temperature 78 °F 82 °F  
Max Temperature 86 °F 91 °F 100 °F (1990)
Min Temperature 71 °F 72 °F 55 °F (1981)
Degree Days  
Heating Degree Days 0 0  
Month to date heating degree days 0  
Since 1 June heating degree days 0  
Since 1 July heating degree days 1349  
Cooling Degree Days 14 17  
Month to date cooling degree days 449  
Year to date cooling degree days 933  
Since 1 June cooling degree days 449  
Growing Degree Days 28 (Base 50)    
Moisture  
Dew Point 74 °F    
Average Humidity 93    
Maximum Humidity 100    
Minimum Humidity 66    
Precipitation  
Precipitation 0.00 in 0.24 in 5.91 in (1919)
Month to date precipitation 6.45  
Year to date precipitation 22.01  
Snow  
Snow 0.00 in 0.00 in 0.00 in (2002)
Month to date snowfall 0.0  
Since 1 June snowfall 0.0  
Since 1 July snowfall T  
Snow Depth -    
Sea Level Pressure  
Sea Level Pressure 29.83 in    
Wind  
Wind Speed 4 mph (South)    
Max Wind Speed 12 mph    
Max Gust Speed -    
Visibility 9 miles    
Events Rain , Thunderstorm    
T = Trace of Precipitation, MM = Missing Value Source: NWS Daily Summary

Daily Weather History Graph

Daily Weather History Graph

Search for Another Location

Airport:

Trip Planner

Search our weather history database for the weather conditions in past years. The results will help you decide how hot, cold, wet, or windy it might be!

Date:

Astronomy

Jun. 30, 2013 Rise Set
Actual Time 6:29 AM EDT 8:33 PM EDT
Civil Twilight 6:01 AM EDT 9:00 PM EDT
Nautical Twilight 5:28 AM EDT 9:33 PM EDT
Astronomical Twilight 4:52 AM EDT 10:09 PM EDT
Moon 1:06 AM EDT (6/30) 2:04 PM EDT (6/30)
Length of Visible Light 14h 58m
Length of Day
14h 04m
Last Quarter, 45% of the Moon is Illuminated
Jun 30
Last Quarter
Jul 8
New
Jul 15
First Quarter
Jul 22
Full
Jul 29
Last Quarter

Hourly Weather History & Observations

Time (EDT) Temp. Heat Index Dew Point Humidity Pressure Visibility Wind Dir Wind Speed Gust Speed Precip Events Conditions
12:15 AM 75.2 °F - 73.4 °F 94% 29.82 in 10.0 mi South 6.9 mph - N/A   Clear
12:35 AM 75.2 °F - 73.4 °F 94% 29.82 in 10.0 mi South 3.5 mph - N/A   Clear
12:55 AM 75.2 °F - 73.4 °F 94% 29.82 in 10.0 mi South 4.6 mph - N/A   Clear
1:15 AM 75.2 °F - 73.4 °F 94% 29.82 in 10.0 mi South 3.5 mph - N/A   Clear
1:35 AM 75.2 °F - 73.4 °F 94% 29.82 in 10.0 mi Calm Calm - N/A   Clear
1:55 AM 75.2 °F - 73.4 °F 94% 29.81 in 10.0 mi SSW 5.8 mph - N/A   Clear
2:15 AM 75.2 °F - 73.4 °F 94% 29.81 in 10.0 mi Calm Calm - N/A   Clear
2:35 AM 73.4 °F - 73.4 °F 100% 29.81 in 10.0 mi Calm Calm - N/A   Clear
2:55 AM 73.4 °F - 73.4 °F 100% 29.80 in 10.0 mi Calm Calm - N/A   Clear
3:15 AM 73.4 °F - 73.4 °F 100% 29.80 in 10.0 mi Calm Calm - N/A   Clear
3:35 AM 73.4 °F - 73.4 °F 100% 29.79 in 10.0 mi Calm Calm - N/A   Clear
3:55 AM 73.4 °F - 73.4 °F 100% 29.79 in 10.0 mi Calm Calm - N/A   Clear
4:15 AM 71.6 °F - 71.6 °F 100% 29.79 in 10.0 mi Calm Calm - N/A   Clear
4:35 AM 71.6 °F - 71.6 °F 100% 29.80 in 7.0 mi Calm Calm - N/A   Clear
4:55 AM 71.6 °F - 71.6 °F 100% 29.80 in 7.0 mi Calm Calm - N/A   Clear
5:15 AM 71.6 °F - 71.6 °F 100% 29.80 in 7.0 mi Calm Calm - N/A   Clear
5:35 AM 71.6 °F - 71.6 °F 100% 29.80 in 7.0 mi Calm Calm - N/A   Clear
5:55 AM 71.6 °F - 71.6 °F 100% 29.81 in 7.0 mi Calm Calm - N/A   Clear
6:15 AM 71.6 °F - 71.6 °F 100% 29.82 in 7.0 mi Calm Calm - N/A   Clear
6:35 AM 71.6 °F - 71.6 °F 100% 29.83 in 5.0 mi Calm Calm - N/A   Clear
6:50 AM 71.6 °F - 71.6 °F 100% 29.82 in 5.0 mi South 4.6 mph - N/A   Clear
7:20 AM 73.4 °F - 73.4 °F 100% 29.83 in 3.0 mi South 5.8 mph - N/A   Overcast
7:50 AM 73.4 °F - 73.4 °F 100% 29.84 in 3.0 mi South 4.6 mph - N/A   Overcast
8:50 AM 77.0 °F - 75.2 °F 94% 29.85 in 7.0 mi South 8.1 mph - N/A   Overcast
9:20 AM 80.6 °F 86.2 °F 75.2 °F 84% 29.84 in 7.0 mi South 5.8 mph - N/A   Scattered Clouds
9:50 AM 82.4 °F 89.5 °F 75.2 °F 79% 29.84 in 7.0 mi SSW 9.2 mph - N/A   Scattered Clouds
10:50 AM 84.2 °F 92.3 °F 75.2 °F 74% 29.83 in 10.0 mi SSW 9.2 mph - N/A   Mostly Cloudy
11:50 AM 86.0 °F 93.4 °F 73.4 °F 66% 29.83 in 10.0 mi South 9.2 mph - N/A   Mostly Cloudy
12:50 PM 82.4 °F 89.5 °F 75.2 °F 79% 29.83 in 5.0 mi WSW 8.1 mph - N/A Rain Light Rain
1:01 PM 84.2 °F 94.1 °F 77.0 °F 79% 29.85 in 5.0 mi West 8.1 mph - N/A Rain , Thunderstorm Light Thunderstorms and Rain
1:50 PM 73.4 °F - 73.4 °F 100% 29.84 in 6.0 mi WSW 5.8 mph - N/A Rain Light Rain
2:50 PM 75.2 °F - 73.4 °F 94% 29.82 in 7.0 mi SW 5.8 mph - N/A   Mostly Cloudy
3:50 PM 78.8 °F - 75.2 °F 89% 29.82 in 10.0 mi Calm Calm - N/A   Mostly Cloudy
4:50 PM 82.4 °F 89.5 °F 75.2 °F 79% 29.81 in 10.0 mi South 11.5 mph - N/A   Scattered Clouds
5:50 PM 82.4 °F 89.5 °F 75.2 °F 79% 29.81 in 10.0 mi SSE 11.5 mph - N/A   Scattered Clouds
6:50 PM 80.6 °F 86.2 °F 75.2 °F 84% 29.81 in 10.0 mi SSE 9.2 mph - N/A   Scattered Clouds
7:50 PM 80.6 °F 87.1 °F 77.0 °F 89% 29.81 in 10.0 mi SSE 9.2 mph - N/A   Scattered Clouds
8:15 PM 80.6 °F 86.2 °F 75.2 °F 84% 29.83 in 10.0 mi South 5.8 mph - N/A   Partly Cloudy
8:35 PM 78.8 °F - 75.2 °F 89% 29.82 in 10.0 mi Calm Calm - N/A   Clear
8:55 PM 77.0 °F - 75.2 °F 94% 29.83 in 10.0 mi Calm Calm - N/A   Clear
9:15 PM 77.0 °F - 75.2 °F 94% 29.83 in 10.0 mi SE 5.8 mph - N/A   Partly Cloudy
9:35 PM 77.0 °F - 75.2 °F 94% 29.85 in 10.0 mi SE 6.9 mph - N/A Thunderstorm Mostly Cloudy
9:55 PM 77.0 °F - 75.2 °F 94% 29.86 in 10.0 mi SSE 6.9 mph - N/A   Scattered Clouds
10:15 PM 77.0 °F - 73.4 °F 89% 29.86 in 10.0 mi SSE 4.6 mph - N/A   Clear
10:35 PM 75.2 °F - 73.4 °F 94% 29.87 in 10.0 mi SSE 6.9 mph - N/A   Clear
10:55 PM 75.2 °F - 73.4 °F 94% 29.87 in 10.0 mi South 9.2 mph - N/A   Clear
11:15 PM 75.2 °F - 73.4 °F 94% 29.87 in 10.0 mi South 5.8 mph - N/A   Partly Cloudy
11:35 PM 75.2 °F - 73.4 °F 94% 29.87 in 10.0 mi South 3.5 mph - N/A   Clear
11:55 PM 75.2 °F - 73.4 °F 94% 29.86 in 10.0 mi Calm Calm - N/A   Clear